Cape Town, South Africa

4:57 AM SAST on May 22, 2018 (GMT +0200)
Cape Town

Weather History for FACT - November, 2012

Change the Weather History Date:

Sunday, November 4, 2012

  Actual Average Record
Temperature  
Mean Temperature 62 °F -  
Max Temperature 70 °F 72 °F 90 °F (2015)
Min Temperature 55 °F 55 °F 44 °F (2005)
Degree Days  
Heating Degree Days 2    
Growing Degree Days 12 (Base 50)    
Moisture  
Dew Point 51 °F    
Average Humidity 68    
Maximum Humidity 88    
Minimum Humidity 43    
Precipitation  
Precipitation 0.00 in 0.00 in - ()
Sea Level Pressure  
Sea Level Pressure 29.97 in    
Wind  
Wind Speed 9 mph ()    
Max Wind Speed 13 mph    
Max Gust Speed -    
Visibility 7.7 miles    
Events      
Averages and records for this station are not official NWS values.
T = Trace of Precipitation, MM = Missing Value Source: Averaged Metar Reports

Daily Weather History Graph

Daily Weather History Graph

Search for Another Location

Airport or City:

Astronomy

Nov. 04, 2012 Rise Set
Actual Time 5:41 AM SAST 7:16 PM SAST
Civil Twilight 5:15 AM SAST 7:43 PM SAST
Nautical Twilight 4:43 AM SAST 8:15 PM SAST
Astronomical Twilight 4:09 AM SAST 8:49 PM SAST
Moon 11:58 PM SAST (11/4) 9:45 AM SAST (11/4)
Length of Visible Light 14h 28m
Length of Day
13h 35m
Waning Gibbous, 74% of the Moon is Illuminated
Nov 4
Waning Gibbous
Nov 7
Last Quarter
Nov 14
New
Nov 20
First Quarter
Nov 28
Full

Hourly Weather History & Observations

Time (SAST) Temp. Dew Point Humidity Pressure Visibility Wind Dir Wind Speed Gust Speed Precip Events Conditions
12:00 AM 55.4 °F 51.8 °F 88% 29.95 in 6.2 mi North 9.2 mph - N/A   Partly Cloudy
1:00 AM 57.2 °F 51.8 °F 82% 29.95 in 6.2 mi NNW 10.4 mph - N/A   Overcast
2:00 AM 58 °F 51 °F 70% 29.95 in 7 mi NNW 11.5 mph - -   Mist
2:00 AM 57.2 °F 51.8 °F 82% 29.95 in 6.2 mi NNW 11.5 mph - N/A   Overcast
3:00 AM 57.2 °F 51.8 °F 82% 29.95 in 6.2 mi NNW 12.7 mph - N/A   Overcast
4:00 AM 57.2 °F 51.8 °F 82% 29.95 in 3.7 mi NNW 12.7 mph - N/A   Overcast
5:00 AM 56 °F 51 °F 80% 29.96 in 4 mi NNW 10.4 mph - -   Mist
5:00 AM 55.4 °F 51.8 °F 88% 29.95 in 3.7 mi NNW 12.7 mph - N/A   Overcast
6:00 AM 55.4 °F 51.8 °F 88% 29.95 in 3.7 mi NNW 10.4 mph - N/A   Overcast
7:00 AM 55.4 °F 50.0 °F 82% 29.95 in 6.2 mi NNW 11.5 mph - N/A   Overcast
8:00 AM 57 °F 50 °F 70% 29.97 in 12 mi NNW 11.5 mph - -   Mostly Cloudy
8:00 AM 57.2 °F 50.0 °F 77% 29.95 in 6.2 mi NNW 11.5 mph - N/A   Mostly Cloudy
9:00 AM 59.0 °F 50.0 °F 72% 29.98 in 6.2 mi NW 10.4 mph - N/A   Mostly Cloudy
10:00 AM 62.6 °F 48.2 °F 59% 29.98 in 6.2 mi North 10.4 mph - N/A   Scattered Clouds
11:00 AM 64 °F 50 °F 50% 30.01 in 16 mi NNW 10.4 mph - -   Partly Cloudy
11:00 AM 64.4 °F 50.0 °F 59% 30.01 in 6.2 mi NNW 9.2 mph - N/A   Scattered Clouds
12:00 PM 66.2 °F 50.0 °F 56% 29.98 in 6.2 mi North 9.2 mph - N/A   Partly Cloudy
1:00 PM 68.0 °F 51.8 °F 56% 29.98 in - NNW 8.1 mph - N/A   Clear
2:00 PM 69 °F 51 °F 43% 29.98 in 16 mi WNW 9.2 mph - -   Clear
2:00 PM 69.8 °F 51.8 °F 53% 29.98 in - NW 8.1 mph - N/A   Clear
3:00 PM 69.8 °F 51.8 °F 53% 29.98 in - WNW 8.1 mph - N/A   Clear
4:00 PM 69.8 °F 51.8 °F 53% 29.95 in - NNW 6.9 mph - N/A   Clear
5:00 PM 69 °F 51 °F 43% 29.95 in 12 mi NNW 6.9 mph - -   Clear
5:00 PM 68.0 °F 51.8 °F 56% 29.95 in - NNW 8.1 mph - N/A   Clear
6:00 PM 64.4 °F 51.8 °F 64% 29.95 in - NW 10.4 mph - N/A   Clear
7:00 PM 62.6 °F 50.0 °F 63% 29.98 in - NNW 5.8 mph - N/A   Clear
8:00 PM 60 °F 51 °F 64% 29.98 in 9 mi SE 3.5 mph - -   Haze
8:00 PM 60.8 °F 50.0 °F 68% 29.98 in - SE 3.5 mph - N/A   Clear
9:00 PM 59.0 °F 50.0 °F 72% 29.98 in - South 3.5 mph - N/A   Clear
10:00 PM 60.8 °F 51.8 °F 72% 30.01 in - SSW 6.9 mph - N/A   Clear
11:00 PM 61 °F 51 °F 62% 30.02 in 12 mi South 6.9 mph - -   Haze
11:00 PM 60.8 °F 51.8 °F 72% 30.01 in - South 6.9 mph - N/A   Clear